Location: Heppenheim
(49.6410°N, 8.6370°E)
Time: 03:06:45
(UTC+01:00)

ISS - Visible Passes

Search period start: 17 November 2018 00:00
Search period end: 27 November 2018 00:00
Orbit: 402 x 408 km, 51.6° (Epoch: 17 November)

Date Brightness Start Highest point End Pass type
(mag) Time Alt. Az. Time Alt. Az. Time Alt. Az.
24 Nov -1.4 18:33:11 10° S 18:34:06 14° SSE 18:34:06 14° SSE visible
25 Nov -1.2 19:16:04 10° SW 19:16:57 17° SW 19:16:57 17° SW visible
26 Nov -2.7 18:24:15 10° SSW 18:27:02 29° SSE 18:27:02 29° SSE visible
